Location: Home
(42.5358°N, 72.7383°W)
Time: 10:55:45
(UTC-05:00)

S-56A Canister/Altair - Pass Details

Date: 02 December 2021
Orbit: 634 x 2499 km, 38.9° (Epoch: 22 January)

Event Time Altitude Azimuth Distance (km) Brightness Sun altitude
Rises 05:18:42 0° 275° (W) 3,409 - -18.5°
Reaches altitude 10° 05:21:48 10° 263° (W) 2,271 - -18.0°
Exits shadow 05:24:17 21° 239° (WSW) 1,543 8.7 -17.6°
Maximum altitude 05:25:53 25° 208° (SSW) 1,336 8.6 -17.3°
Drops below altitude 10° 05:29:32 10° 153° (SSE) 2,005 10.3 -16.6°
Sets 05:32:05 0° 139° (SE) 2,921 11.5 -16.2°
